Tracking 20093 objects as of 14-Dec-2019
HD Live streaming from Space Station
objects crossing your sky now

DELTA 4 DEB

Track DELTA 4 DEB now!
10-day predictions


NORAD ID: 40649
Int'l Code: 2015-013F
Perigee: 1,242.2 km
Apogee: 20,497.0 km
Inclination: 52.8 °
Period: 375.5 minutes
Semi major axis: 17240 km
RCS: Unknown
Launch date: March 25, 2015
Source: United States (US)
Launch site: AIR FORCE EASTERN TEST RANGE (AFETR)

Note: This is SATELLITE DEBRIS
aabbcc
Your satellite tracking list
Your tracking list is empty




NASA's NSSDC Master Catalog

Two Line Element Set (TLE):
1 40649U 15013F   16112.92530742 -.00000050 +00000-0 +00000-0 0  9992
2 40649 052.7812 202.5124 5584158 194.8970 137.7756 03.83508225014614
Source of the keplerian elements: AFSPC